Date,TemperatureHighF,TemperatureAvgF,TemperatureLowF,DewpointHighF,DewpointAvgF,DewpointLowF,HumidityHigh,HumidityAvg,HumidityLow,PressureMaxIn,PressureMinIn,WindSpeedMaxMPH,WindSpeedAvgMPH,GustSpeedMaxMPH,PrecipitationSumIn
2013-4-1,61,51,41,45,39,27,88,64,44,30.00,29.82,11,2,18,0.00
2013-4-2,54,43,34,28,21,15,68,45,21,30.16,30.00,6,2,14,0.00
2013-4-3,57,50,38,19,15,11,45,26,18,30.34,30.16,6,2,0,0.00
2013-4-4,43,35,30,32,23,16,96,65,38,30.39,30.03,7,0,0,0.00
2013-4-5,64,45,33,40,34,30,97,72,29,30.04,29.91,6,1,14,0.00
2013-4-6,64,49,32,39,33,29,90,58,34,30.25,30.03,4,1,0,0.00
2013-4-7,74,55,37,46,38,29,87,56,35,30.21,30.00,7,1,0,0.00
2013-4-8,81,64,48,52,47,43,83,56,28,30.10,29.94,5,1,13,0.00
2013-4-9,86,71,55,55,52,49,79,53,30,30.11,29.95,9,1,12,0.00
2013-4-10,91,76,63,60,54,46,71,50,22,30.00,29.80,8,2,12,0.00
2013-4-11,86,74,64,61,55,48,74,54,27,29.85,29.64,6,2,14,0.00
2013-4-12,74,64,59,65,55,37,98,77,36,29.77,29.56,7,1,18,0.00
2013-4-13,73,61,50,41,34,29,61,39,20,29.96,29.76,8,3,19,0.00
2013-4-14,79,64,46,45,37,31,71,41,23,30.06,29.93,4,1,0,0.00
2013-4-15,67,56,52,55,52,43,97,87,42,30.22,29.99,1,0,0,0.00
2013-4-16,80,65,56,64,58,53,98,80,55,30.27,30.10,2,0,0,0.00
2013-4-17,81,67,59,63,59,56,92,77,51,30.17,30.05,5,1,0,0.00
2013-4-18,80,69,58,64,59,54,96,73,45,30.10,29.90,6,1,0,0.00
2013-4-19,72,66,52,65,58,38,94,78,65,29.90,29.60,5,2,15,0.00
2013-4-20,62,51,42,38,30,24,64,45,24,30.29,29.83,8,2,20,0.00
2013-4-21,59,46,32,37,33,30,93,64,39,30.51,30.29,2,0,0,0.00
2013-4-22,64,48,33,36,33,26,93,60,24,30.49,30.28,3,1,0,0.00
2013-4-23,74,56,41,50,44,35,83,65,41,30.32,30.05,3,0,0,0.00
2013-4-24,80,60,44,61,50,43,98,73,35,30.09,29.84,6,1,14,0.00
2013-4-25,68,52,38,45,32,18,78,50,19,30.29,30.04,7,2,16,0.00
2013-4-26,72,54,37,41,36,27,79,52,31,30.44,30.28,2,0,0,0.00
2013-4-27,54,50,48,45,43,41,83,75,65,30.35,30.32,1,0,0,0.00
2013-4-29,70,61,51,59,56,50,98,86,67,30.06,29.95,2,0,0,0.00
2013-4-30,73,62,56,59,56,54,98,85,59,30.19,30.01,2,0,0,0.00